| time (UTC) | temp F | wind direction | speed MPH | gust MPH | rain 1hr in | rain 24hr in | rain mn in | humidity % | barometer mb |
| 20260831210643 | 91 | 185 | 1.0 | 1.0 | 0.00 | 0.00 | 0.00 | 74 | 1010.1 |
| 20260831210041 | 90 | 157 | 0.0 | 1.0 | 0.00 | 0.00 | 0.00 | 76 | 1010.1 |
| 20260831205440 | 90 | 163 | 0.0 | 1.0 | 0.00 | 0.00 | 0.00 | 75 | 1009.8 |
| 20260831204843 | 90 | 199 | 0.0 | 0.0 | 0.00 | 0.00 | 0.00 | 74 | 1009.8 |
| 20260831204227 | 91 | 176 | 1.0 | 1.0 | 0.00 | 0.00 | 0.00 | 72 | 1010.1 |
| 20260831203626 | 92 | 155 | 0.0 | 1.0 | 0.00 | 0.00 | 0.00 | 66 | 1009.8 |
| 20260831203048 | 93 | 209 | 1.0 | 2.0 | 0.00 | 0.00 | 0.00 | 65 | 1009.8 |
| 20260831201242 | 92 | 164 | 0.0 | 0.0 | 0.00 | 0.00 | 0.00 | 71 | 1010.1 |
| 20260831200637 | 92 | 172 | 1.0 | 1.0 | 0.00 | 0.00 | 0.00 | 69 | 1010.1 |
| 20260831200027 | 92 | 255 | 1.0 | 1.0 | 0.00 | 0.00 | 0.00 | 67 | 1010.4 |
| 20260831195410 | 92 | 237 | 2.0 | 2.0 | 0.00 | 0.00 | 0.00 | 70 | 1010.4 |
| 20260831194835 | 91 | 265 | 3.0 | 3.0 | 0.00 | 0.00 | 0.00 | 71 | 1010.4 |
| 20260831194240 | 88 | 182 | 1.0 | 1.0 | 0.00 | 0.00 | 0.00 | 80 | 1010.4 |
| 20260831193645 | 89 | 155 | 0.0 | 0.0 | 0.00 | 0.00 | 0.00 | 80 | 1010.4 |
| 20260831193024 | 89 | 139 | 0.0 | 0.0 | 0.00 | 0.00 | 0.00 | 78 | 1010.4 |
| 20260831192445 | 88 | 182 | 1.0 | 1.0 | 0.00 | 0.00 | 0.00 | 74 | 1010.4 |
| 20260831191838 | 90 | 213 | 2.0 | 2.0 | 0.00 | 0.00 | 0.00 | 75 | 1010.8 |
| 20260831191225 | 91 | 182 | 1.0 | 1.0 | 0.00 | 0.00 | 0.00 | 72 | 1010.8 |
| 20260831190635 | 92 | 209 | 1.0 | 2.0 | 0.00 | 0.00 | 0.00 | 70 | 1010.8 |
| 20260831190045 | 91 | 342 | 2.0 | 2.0 | 0.00 | 0.00 | 0.00 | 68 | 1010.8 |
| 20260831185437 | 91 | 287 | 2.0 | 3.0 | 0.00 | 0.00 | 0.00 | 70 | 1011.1 |
| 20260831184251 | 91 | 210 | 2.0 | 3.0 | 0.00 | 0.00 | 0.00 | 70 | 1011.1 |
| 20260831183631 | 90 | 304 | 2.0 | 2.0 | 0.00 | 0.00 | 0.00 | 71 | 1011.1 |
| 20260831183051 | 90 | 259 | 1.0 | 2.0 | 0.00 | 0.00 | 0.00 | 72 | 1011.1 |
| 20260831182410 | 90 | 245 | 2.0 | 2.0 | 0.00 | 0.00 | 0.00 | 74 | 1011.1 |
| 20260831181832 | 90 | 278 | 1.0 | 1.0 | 0.00 | 0.00 | 0.00 | 74 | 1011.1 |
| 20260831180635 | 89 | 166 | 1.0 | 1.0 | 0.00 | 0.00 | 0.00 | 74 | 1011.1 |
| 20260831180034 | 90 | 329 | 3.0 | 3.0 | 0.00 | 0.00 | 0.00 | 71 | 1011.1 |
| 20260831175420 | 90 | 161 | 1.0 | 1.0 | 0.00 | 0.00 | 0.00 | 73 | 1011.5 |
| 20260831174808 | 90 | 88 | 2.0 | 2.0 | 0.00 | 0.00 | 0.00 | 76 | 1011.1 |
| 20260831174228 | 89 | 188 | 1.0 | 1.0 | 0.00 | 0.00 | 0.00 | 75 | 1011.5 |
| 20260831173651 | 89 | 32 | 2.0 | 3.0 | 0.00 | 0.00 | 0.00 | 76 | 1011.5 |
| 20260831172427 | 88 | 8 | 2.0 | 2.0 | 0.00 | 0.00 | 0.00 | 77 | 1011.5 |
| 20260831171229 | 87 | 273 | 2.0 | 2.0 | 0.00 | 0.00 | 0.00 | 77 | 1011.5 |
| 20260831170623 | 86 | 120 | 0.0 | 1.0 | 0.00 | 0.00 | 0.00 | 76 | 1011.8 |
| 20260831165439 | 87 | 347 | 3.0 | 4.0 | 0.00 | 0.00 | 0.00 | 77 | 1011.5 |
| 20260831164824 | 86 | 126 | 1.0 | 1.0 | 0.00 | 0.00 | 0.00 | 79 | 1011.8 |
| 20260831164248 | 86 | 122 | 0.0 | 1.0 | 0.00 | 0.00 | 0.00 | 80 | 1011.5 |
| 20260831163634 | 86 | 283 | 1.0 | 2.0 | 0.00 | 0.00 | 0.00 | 82 | 1011.8 |
| 20260831163030 | 85 | 253 | 1.0 | 2.0 | 0.00 | 0.00 | 0.00 | 83 | 1011.8 |
| 20260831162440 | 85 | 58 | 1.0 | 2.0 | 0.00 | 0.00 | 0.00 | 82 | 1011.8 |
| 20260831161808 | 84 | 355 | 3.0 | 4.0 | 0.00 | 0.00 | 0.00 | 85 | 1011.5 |
| 20260831161228 | 82 | 236 | 2.0 | 2.0 | 0.00 | 0.00 | 0.00 | 85 | 1011.8 |
| 20260831160646 | 82 | 353 | 3.0 | 3.0 | 0.00 | 0.00 | 0.00 | 86 | 1011.8 |
| 20260831160050 | 81 | 253 | 2.0 | 3.0 | 0.00 | 0.00 | 0.00 | 88 | 1011.8 |
| 20260831155441 | 81 | 81 | 1.0 | 1.0 | 0.00 | 0.00 | 0.00 | 90 | 1011.8 |
| 20260831154218 | 79 | 184 | 1.0 | 2.0 | 0.00 | 0.00 | 0.00 | 95 | 1011.8 |
| 20260831153648 | 78 | 136 | 0.0 | 0.0 | 0.00 | 0.00 | 0.00 | 95 | 1011.8 |
| 20260831153042 | 78 | 157 | 0.0 | 1.0 | 0.00 | 0.00 | 0.00 | 97 | 1011.8 |
| 20260831152407 | 77 | 131 | 0.0 | 0.0 | 0.00 | 0.00 | 0.00 | 98 | 1012.1 |
| 20260831151247 | 76 | 156 | 0.0 | 0.0 | 0.00 | 0.00 | 0.00 | 99 | 1012.1 |
| 20260831150632 | 76 | 158 | 0.0 | 0.0 | 0.00 | 0.00 | 0.00 | 99 | 1012.1 |
| 20260831150014 | 76 | 145 | 0.0 | 0.0 | 0.00 | 0.00 | 0.00 | 99 | 1012.1 |
| 20260831145441 | 76 | 144 | 0.0 | 1.0 | 0.00 | 0.00 | 0.00 | 99 | 1012.1 |
| 20260831144823 | 75 | 140 | 0.0 | 0.0 | 0.00 | 0.00 | 0.00 | 99 | 1012.1 |
| 20260831144217 | 75 | 149 | 0.0 | 0.0 | 0.00 | 0.00 | 0.00 | 99 | 1012.1 |
| 20260831143032 | 74 | 145 | 0.0 | 0.0 | 0.00 | 0.00 | 0.00 | 99 | 1012.1 |
| 20260831142410 | 74 | 149 | 0.0 | 0.0 | 0.00 | 0.00 | 0.00 | 99 | 1012.1 |
| 20260831141247 | 74 | 325 | 1.0 | 1.0 | 0.00 | 0.00 | 0.00 | 99 | 1012.1 |
| 20260831140651 | 74 | 146 | 0.0 | 0.0 | 0.00 | 0.00 | 0.00 | 99 | 1012.1 |
| 20260831135433 | 74 | 148 | 0.0 | 0.0 | 0.00 | 0.00 | 0.00 | 99 | 1011.8 |
| 20260831134848 | 73 | 173 | 1.0 | 1.0 | 0.00 | 0.00 | 0.00 | 99 | 1011.8 |
| 20260831134212 | 73 | 149 | 0.0 | 0.0 | 0.00 | 0.00 | 0.00 | 99 | 1011.8 |
| 20260831133646 | 73 | 132 | 0.0 | 0.0 | 0.00 | 0.00 | 0.00 | 99 | 1011.8 |
| 20260831133036 | 73 | 93 | 0.0 | 0.0 | 0.00 | 0.00 | 0.00 | 99 | 1011.8 |
| 20260831132448 | 72 | 173 | 0.0 | 0.0 | 0.00 | 0.00 | 0.00 | 99 | 1011.8 |
| 20260831131848 | 72 | 149 | 0.0 | 0.0 | 0.00 | 0.00 | 0.00 | 99 | 1011.5 |
| 20260831131239 | 72 | 151 | 0.0 | 0.0 | 0.00 | 0.00 | 0.00 | 99 | 1011.8 |
| 20260831130638 | 72 | 142 | 0.0 | 0.0 | 0.00 | 0.00 | 0.00 | 99 | 1011.8 |
| 20260831130043 | 72 | 133 | 0.0 | 0.0 | 0.00 | 0.00 | 0.00 | 99 | 1011.5 |
| 20260831125406 | 72 | 133 | 0.0 | 0.0 | 0.00 | 0.00 | 0.00 | 99 | 1011.8 |
| 20260831124810 | 71 | 133 | 0.0 | 0.0 | 0.00 | 0.00 | 0.00 | 99 | 1011.8 |
| 20260831124230 | 71 | 138 | 0.0 | 0.0 | 0.00 | 0.00 | 0.00 | 99 | 1011.8 |
| 20260831123035 | 71 | 125 | 0.0 | 0.0 | 0.00 | 0.00 | 0.00 | 99 | 1011.5 |
| 20260831122413 | 71 | 133 | 0.0 | 0.0 | 0.00 | 0.00 | 0.00 | 99 | 1011.5 |
| 20260831121833 | 71 | 130 | 0.0 | 0.0 | 0.00 | 0.00 | 0.00 | 99 | 1011.5 |
| 20260831121237 | 71 | 129 | 0.0 | 0.0 | 0.00 | 0.00 | 0.00 | 99 | 1011.5 |
| 20260831120649 | 71 | 132 | 0.0 | 0.0 | 0.00 | 0.00 | 0.00 | 99 | 1011.5 |
| 20260831120024 | 70 | 132 | 0.0 | 0.0 | 0.00 | 0.00 | 0.00 | 99 | 1011.8 |
| 20260831115442 | 70 | 132 | 0.0 | 0.0 | 0.00 | 0.00 | 0.00 | 99 | 1011.8 |
| 20260831114222 | 70 | 127 | 0.0 | 0.0 | 0.00 | 0.00 | 0.00 | 99 | 1011.5 |
| 20260831113636 | 70 | 126 | 0.0 | 0.0 | 0.00 | 0.00 | 0.00 | 99 | 1011.5 |
| 20260831113049 | 70 | 117 | 0.0 | 0.0 | 0.00 | 0.00 | 0.00 | 99 | 1011.1 |
| 20260831112411 | 70 | 117 | 0.0 | 0.0 | 0.00 | 0.00 | 0.00 | 99 | 1011.1 |
| 20260831111221 | 70 | 129 | 0.0 | 0.0 | 0.00 | 0.00 | 0.00 | 99 | 1011.1 |
| 20260831110608 | 70 | 121 | 0.0 | 0.0 | 0.00 | 0.00 | 0.00 | 99 | 1011.1 |
| 20260831110042 | 70 | 126 | 0.0 | 0.0 | 0.00 | 0.00 | 0.00 | 99 | 1010.8 |
| 20260831104852 | 69 | 123 | 0.0 | 0.0 | 0.00 | 0.00 | 0.00 | 99 | 1010.8 |
| 20260831104229 | 69 | 123 | 0.0 | 0.0 | 0.00 | 0.00 | 0.00 | 99 | 1010.8 |
| 20260831103641 | 69 | 122 | 0.0 | 0.0 | 0.00 | 0.00 | 0.00 | 99 | 1010.8 |
| 20260831103026 | 69 | 123 | 0.0 | 0.0 | 0.00 | 0.00 | 0.00 | 99 | 1010.8 |
| 20260831102417 | 69 | 127 | 0.0 | 0.0 | 0.00 | 0.00 | 0.00 | 99 | 1010.4 |
| 20260831101839 | 69 | 126 | 0.0 | 0.0 | 0.00 | 0.00 | 0.00 | 99 | 1010.8 |
| 20260831101226 | 69 | 124 | 0.0 | 0.0 | 0.00 | 0.00 | 0.00 | 99 | 1010.8 |
| 20260831100629 | 69 | 125 | 0.0 | 0.0 | 0.00 | 0.00 | 0.00 | 99 | 1010.8 |
| 20260831100049 | 69 | 124 | 0.0 | 0.0 | 0.00 | 0.00 | 0.00 | 99 | 1010.4 |
| 20260831094241 | 69 | 131 | 0.0 | 0.0 | 0.00 | 0.00 | 0.00 | 99 | 1010.8 |
| 20260831093645 | 69 | 131 | 0.0 | 0.0 | 0.00 | 0.00 | 0.00 | 99 | 1010.4 |
| 20260831093047 | 69 | 131 | 0.0 | 0.0 | 0.00 | 0.00 | 0.00 | 99 | 1010.8 |
| 20260831092425 | 69 | 130 | 0.0 | 0.0 | 0.00 | 0.00 | 0.00 | 99 | 1010.8 |
| 20260831091841 | 70 | 130 | 0.0 | 0.0 | 0.00 | 0.00 | 0.00 | 99 | 1010.8 |
| 20260831090014 | 69 | 137 | 0.0 | 0.0 | 0.00 | 0.00 | 0.00 | 99 | 1010.8 |
| 20260831085446 | 69 | 137 | 0.0 | 0.0 | 0.00 | 0.00 | 0.00 | 99 | 1010.8 |
| 20260831084813 | 69 | 137 | 0.0 | 0.0 | 0.00 | 0.00 | 0.00 | 99 | 1010.8 |
| 20260831083627 | 69 | 137 | 0.0 | 0.0 | 0.00 | 0.00 | 0.00 | 99 | 1010.4 |
| 20260831083041 | 69 | 137 | 0.0 | 0.0 | 0.00 | 0.00 | 0.00 | 99 | 1010.4 |
| 20260831082423 | 69 | 137 | 0.0 | 0.0 | 0.00 | 0.00 | 0.00 | 99 | 1010.4 |
| 20260831081818 | 69 | 137 | 0.0 | 0.0 | 0.00 | 0.00 | 0.00 | 99 | 1010.4 |
| 20260831081213 | 69 | 137 | 0.0 | 0.0 | 0.00 | 0.00 | 0.00 | 99 | 1010.4 |
| 20260831080627 | 69 | 137 | 0.0 | 0.0 | 0.00 | 0.00 | 0.00 | 99 | 1010.4 |
| 20260831075429 | 69 | 137 | 0.0 | 0.0 | 0.00 | 0.00 | 0.00 | 99 | 1010.4 |
| 20260831074806 | 69 | 137 | 0.0 | 0.0 | 0.00 | 0.00 | 0.00 | 99 | 1010.1 |
| 20260831074237 | 70 | 137 | 0.0 | 0.0 | 0.00 | 0.00 | 0.00 | 99 | 1010.4 |
| 20260831073615 | 70 | 137 | 0.0 | 0.0 | 0.00 | 0.00 | 0.00 | 99 | 1010.4 |
| 20260831073040 | 70 | 137 | 0.0 | 0.0 | 0.00 | 0.00 | 0.00 | 99 | 1010.1 |
| 20260831071845 | 70 | 137 | 0.0 | 0.0 | 0.00 | 0.00 | 0.00 | 99 | 1010.4 |
| 20260831070648 | 70 | 137 | 0.0 | 0.0 | 0.00 | 0.00 | 0.00 | 99 | 1010.4 |
| 20260831070008 | 70 | 137 | 0.0 | 0.0 | 0.00 | 0.00 | 0.00 | 99 | 1010.4 |
| 20260831065444 | 70 | 137 | 0.0 | 0.0 | 0.00 | 0.00 | 0.00 | 99 | 1010.4 |
| 20260831064821 | 70 | 137 | 0.0 | 0.0 | 0.00 | 0.00 | 0.00 | 99 | 1010.4 |
| 20260831064208 | 70 | 137 | 0.0 | 0.0 | 0.00 | 0.00 | 0.00 | 99 | 1010.4 |
| 20260831063033 | 70 | 137 | 0.0 | 0.0 | 0.00 | 0.00 | 0.00 | 99 | 1010.4 |
| 20260831062429 | 70 | 137 | 0.0 | 0.0 | 0.00 | 0.00 | 0.00 | 99 | 1010.4 |
| 20260831061817 | 71 | 137 | 0.0 | 0.0 | 0.00 | 0.00 | 0.00 | 99 | 1010.4 |
| 20260831061236 | 71 | 137 | 0.0 | 0.0 | 0.00 | 0.00 | 0.00 | 99 | 1010.4 |
| 20260831060636 | 71 | 137 | 0.0 | 0.0 | 0.00 | 0.00 | 0.00 | 99 | 1010.8 |
| 20260831060024 | 71 | 137 | 0.0 | 0.0 | 0.00 | 0.00 | 0.00 | 99 | 1010.8 |
| 20260831055425 | 71 | 137 | 0.0 | 0.0 | 0.00 | 0.00 | 0.00 | 99 | 1011.1 |
| 20260831054840 | 71 | 137 | 0.0 | 0.0 | 0.00 | 0.00 | 0.00 | 99 | 1010.8 |
| 20260831054217 | 71 | 137 | 0.0 | 0.0 | 0.00 | 0.00 | 0.00 | 99 | 1010.8 |
| 20260831053621 | 71 | 137 | 0.0 | 0.0 | 0.00 | 0.00 | 0.00 | 99 | 1010.8 |
| 20260831053031 | 71 | 136 | 0.0 | 0.0 | 0.00 | 0.00 | 0.00 | 99 | 1010.8 |
| 20260831051825 | 71 | 137 | 0.0 | 0.0 | 0.00 | 0.00 | 0.00 | 99 | 1010.8 |
| 20260831050642 | 72 | 134 | 0.0 | 0.0 | 0.00 | 0.00 | 0.00 | 99 | 1010.8 |
| 20260831045438 | 71 | 132 | 0.0 | 0.0 | 0.00 | 0.00 | 0.00 | 99 | 1011.1 |
| 20260831044213 | 72 | 132 | 0.0 | 0.0 | 0.00 | 0.00 | 0.00 | 99 | 1010.8 |
| 20260831043638 | 72 | 132 | 0.0 | 0.0 | 0.00 | 0.00 | 0.00 | 99 | 1010.8 |
| 20260831043049 | 72 | 132 | 0.0 | 0.0 | 0.00 | 0.00 | 0.00 | 99 | 1010.8 |
| 20260831042416 | 72 | 129 | 0.0 | 0.0 | 0.00 | 0.00 | 0.00 | 99 | 1010.8 |
| 20260831041832 | 72 | 129 | 0.0 | 0.0 | 0.00 | 0.00 | 0.00 | 99 | 1011.1 |
| 20260831040635 | 72 | 128 | 0.0 | 0.0 | 0.00 | 0.00 | 0.00 | 99 | 1011.1 |
| 20260831040028 | 72 | 120 | 0.0 | 0.0 | 0.00 | 0.00 | 0.05 | 99 | 1011.1 |
| 20260831034829 | 72 | 100 | 0.0 | 0.0 | 0.00 | 0.00 | 0.05 | 99 | 1011.1 |
| 20260831034219 | 72 | 145 | 0.0 | 0.0 | 0.00 | 0.00 | 0.05 | 99 | 1011.1 |
| 20260831033644 | 72 | 145 | 0.0 | 0.0 | 0.00 | 0.00 | 0.05 | 99 | 1011.1 |
| 20260831033012 | 73 | 145 | 0.0 | 0.0 | 0.00 | 0.00 | 0.05 | 99 | 1011.1 |
| 20260831032451 | 73 | 145 | 0.0 | 0.0 | 0.00 | 0.00 | 0.05 | 99 | 1011.1 |
| 20260831031813 | 73 | 145 | 0.0 | 0.0 | 0.00 | 0.00 | 0.05 | 99 | 1011.1 |
| 20260831031234 | 73 | 145 | 0.0 | 0.0 | 0.00 | 0.00 | 0.05 | 99 | 1011.1 |
| 20260831030621 | 73 | 145 | 0.0 | 0.0 | 0.00 | 0.00 | 0.05 | 99 | 1011.1 |
| 20260831025424 | 73 | 145 | 0.0 | 0.0 | 0.00 | 0.00 | 0.05 | 99 | 1011.1 |
| 20260831024226 | 74 | 145 | 0.0 | 0.0 | 0.00 | 0.00 | 0.05 | 99 | 1011.1 |
| 20260831023629 | 74 | 145 | 0.0 | 0.0 | 0.00 | 0.00 | 0.05 | 99 | 1011.1 |
| 20260831023010 | 74 | 145 | 0.0 | 0.0 | 0.00 | 0.00 | 0.05 | 99 | 1011.1 |
| 20260831022426 | 74 | 145 | 0.0 | 0.0 | 0.00 | 0.00 | 0.05 | 99 | 1011.1 |
| 20260831021811 | 74 | 145 | 0.0 | 0.0 | 0.00 | 0.00 | 0.05 | 99 | 1011.1 |
| 20260831021246 | 74 | 145 | 0.0 | 0.0 | 0.00 | 0.00 | 0.05 | 99 | 1011.1 |
| 20260831020640 | 74 | 145 | 0.0 | 0.0 | 0.00 | 0.00 | 0.05 | 99 | 1010.8 |
| 20260831015435 | 74 | 141 | 0.0 | 0.0 | 0.00 | 0.00 | 0.05 | 99 | 1010.8 |
| 20260831014807 | 74 | 141 | 0.0 | 0.0 | 0.00 | 0.00 | 0.05 | 99 | 1011.1 |
| 20260831014231 | 75 | 148 | 0.0 | 0.0 | 0.00 | 0.00 | 0.05 | 99 | 1011.1 |
| 20260831013622 | 74 | 142 | 0.0 | 0.0 | 0.00 | 0.00 | 0.05 | 99 | 1011.1 |
| 20260831013049 | 74 | 143 | 0.0 | 0.0 | 0.00 | 0.00 | 0.05 | 99 | 1010.8 |
| 20260831012433 | 74 | 145 | 0.0 | 0.0 | 0.00 | 0.00 | 0.05 | 99 | 1010.8 |
| 20260831011251 | 75 | 138 | 0.0 | 0.0 | 0.00 | 0.00 | 0.05 | 99 | 1010.8 |
| 20260831010633 | 75 | 139 | 0.0 | 0.0 | 0.00 | 0.00 | 0.05 | 99 | 1010.8 |
| 20260831010048 | 75 | 140 | 0.0 | 0.0 | 0.00 | 0.00 | 0.05 | 98 | 1010.8 |
| 20260831005445 | 75 | 142 | 0.0 | 0.0 | 0.00 | 0.00 | 0.05 | 98 | 1010.8 |
| 20260831004839 | 75 | 138 | 0.0 | 0.0 | 0.00 | 0.00 | 0.05 | 98 | 1010.4 |
| 20260831004244 | 75 | 128 | 0.0 | 0.0 | 0.00 | 0.00 | 0.05 | 98 | 1010.4 |
| 20260831003639 | 75 | 134 | 0.0 | 0.0 | 0.00 | 0.00 | 0.05 | 97 | 1010.1 |
| 20260831003016 | 76 | 129 | 0.0 | 0.0 | 0.00 | 0.00 | 0.05 | 97 | 1010.1 |
| 20260831001838 | 77 | 146 | 0.0 | 0.0 | 0.00 | 0.00 | 0.05 | 96 | 1010.1 |
| 20260831001209 | 77 | 138 | 0.0 | 0.0 | 0.00 | 0.00 | 0.05 | 94 | 1010.1 |
| 20260831000649 | 78 | 143 | 0.0 | 0.0 | 0.00 | 0.00 | 0.05 | 93 | 1010.1 |
| 20260831000024 | 79 | 141 | 0.0 | 0.0 | 0.00 | 0.00 | 0.05 | 92 | 1010.1 |
| 20260830234847 | 81 | 143 | 0.0 | 0.0 | 0.00 | 0.00 | 0.05 | 89 | 1009.8 |
| 20260830234227 | 82 | 146 | 0.0 | 0.0 | 0.00 | 0.00 | 0.05 | 86 | 1010.1 |
| 20260830233608 | 83 | 138 | 0.0 | 0.0 | 0.00 | 0.00 | 0.05 | 85 | 1010.1 |
| 20260830232412 | 83 | 138 | 0.0 | 0.0 | 0.00 | 0.00 | 0.05 | 86 | 1009.8 |
| 20260830231227 | 83 | 138 | 0.0 | 0.0 | 0.00 | 0.00 | 0.05 | 87 | 1009.8 |
| 20260830230609 | 84 | 133 | 0.0 | 0.0 | 0.00 | 0.00 | 0.05 | 86 | 1009.4 |
| 20260830230024 | 84 | 124 | 0.0 | 0.0 | 0.00 | 0.00 | 0.05 | 85 | 1009.4 |
| 20260830224842 | 84 | 143 | 0.0 | 0.0 | 0.00 | 0.00 | 0.05 | 89 | 1009.4 |
| 20260830224245 | 83 | 144 | 0.0 | 0.0 | 0.00 | 0.00 | 0.05 | 89 | 1009.4 |
| 20260830223615 | 84 | 148 | 0.0 | 0.0 | 0.00 | 0.00 | 0.05 | 89 | 1009.8 |
| 20260830222427 | 83 | 139 | 0.0 | 0.0 | 0.00 | 0.00 | 0.05 | 90 | 1009.4 |
| 20260830221823 | 83 | 162 | 0.0 | 0.0 | 0.00 | 0.00 | 0.05 | 90 | 1009.8 |
| 20260830215444 | 81 | 143 | 0.0 | 0.0 | 0.00 | 0.00 | 0.05 | 92 | 1009.8 |
| 20260830214824 | 81 | 148 | 0.0 | 0.0 | 0.00 | 0.00 | 0.05 | 93 | 1010.4 |
| 20260830214234 | 81 | 162 | 0.0 | 0.0 | 0.00 | 0.00 | 0.05 | 93 | 1010.1 |
| 20260830213610 | 81 | 135 | 0.0 | 0.0 | 0.00 | 0.00 | 0.05 | 93 | 1010.1 |
| 20260830212447 | 81 | 152 | 0.0 | 0.0 | 0.00 | 0.00 | 0.05 | 93 | 1010.1 |
| 20260830211844 | 80 | 137 | 0.0 | 0.0 | 0.00 | 0.00 | 0.05 | 93 | 1010.1 |
| 20260830211221 | 80 | 139 | 0.0 | 0.0 | 0.00 | 0.00 | 0.05 | 93 | 1010.4 |